sat.trackr.live / text

‹ back to catalog

LEMUR-2-DEMBITZ

NORAD 42842 · 2017-042T

PAYLOAD ACTIVE UNKNOWN

§ Identity

Operator
Country
US
Launch date
2017-07-14
Launch site
TYMSC
Launch vehicle
Mass (kg)
RCS (m²)

Purposes: earth_obs

External: N2YO · Heavens-Above · Gunter

§ Orbital elements

Epoch: 2026-05-25T05:00:41.543424Z

Period
94.15 min
Inclination
97.3827°
Eccentricity
0.0008157
Mean motion
15.29489682 rev/d
Perigee alt
471.7 km
Apogee alt
482.9 km
Semi-major
6,855.5 km
B*
5.5658e-4
RAAN
326.9674°
Arg perigee
100.6473°
Mean anomaly
259.5686°
Rev number
48,483

§ Raw data

LEMUR-2-DEMBITZ1 42842U 17042T   26145.20881416  .00015868  00000+0  55658-3 0  99912 42842  97.3827 326.9674 0008157 100.6473 259.5686 15.29489682484839

JSON: /api/v1/satellites/42842 · /tle

For live sub-satellite position, see the globe view (requires WebGL).

§ Visibility from observer

Set your observer location to see the next 7 days of passes ≥ 10°. The values pass through the URL so the page stays shareable.

No JS? Fill the form by hand. The geolocation button needs JavaScript.